Winfield, KS

6:10 PM CST on February 20, 2018 (GMT -0600)
Strother

Weather History for KWLD - December, 2013

Change the Weather History Date:

Sunday, December 1, 2013

  Actual Average Record
Temperature  
Mean Temperature 46 °F -  
Max Temperature 62 °F 49 °F 69 °F (2012)
Min Temperature 30 °F 30 °F 0 °F (2006)
Degree Days  
Heating Degree Days 19    
Moisture  
Dew Point 36 °F    
Average Humidity 82    
Maximum Humidity 100    
Minimum Humidity 41    
Precipitation  
Precipitation 0.00 in - - ()
Sea Level Pressure  
Sea Level Pressure 30.03 in    
Wind  
Wind Speed 1 mph (South)    
Max Wind Speed 7 mph    
Max Gust Speed -    
Visibility 8 miles    
Events Fog    
Averages and records for this station are not official NWS values.
T = Trace of Precipitation, MM = Missing Value Source: NWS Daily Summary

Daily Weather History Graph

Daily Weather History Graph

Search for Another Location

Airport or City:

Trip Planner

Search our weather history database for the weather conditions in past years. The results will help you decide how hot, cold, wet, or windy it might be!

Date:

Astronomy

Dec. 01, 2013 Rise Set
Actual Time 7:23 AM CST 5:11 PM CST
Civil Twilight 6:54 AM CST 5:39 PM CST
Nautical Twilight 6:22 AM CST 6:11 PM CST
Astronomical Twilight 5:51 AM CST 6:43 PM CST
Moon 5:44 AM CST (12/1) 4:20 PM CST (12/1)
Length of Visible Light 10h 44m
Length of Day
9h 47m
Waning Crescent, 2% of the Moon is Illuminated
Dec 1
Waning Crescent
Dec 2
New
Dec 9
First Quarter
Dec 17
Full
Dec 25
Last Quarter

Hourly Weather History & Observations

Time (CST) Temp. Windchill Dew Point Humidity Pressure Visibility Wind Dir Wind Speed Gust Speed Precip Events Conditions
12:54 AM 30.9 °F - 28.9 °F 92% 30.12 in 10.0 mi Calm Calm - N/A   Clear
1:54 AM 30.9 °F - 28.0 °F 89% 30.11 in 10.0 mi Calm Calm - N/A   Clear
2:54 AM 32.0 °F - 30.0 °F 92% 30.11 in 10.0 mi Calm Calm - N/A   Clear
3:54 AM 30.9 °F - 28.9 °F 92% 30.12 in 10.0 mi Calm Calm - N/A   Clear
4:54 AM 30.9 °F - 28.9 °F 92% 30.11 in 10.0 mi Calm Calm - N/A   Clear
5:54 AM 30.0 °F - 28.0 °F 92% 30.12 in 8.0 mi Calm Calm - N/A   Clear
6:54 AM 30.9 °F - 30.0 °F 96% 30.12 in 8.0 mi Calm Calm - N/A   Clear
7:54 AM 32.0 °F - 32.0 °F 100% 30.12 in 7.0 mi Calm Calm - N/A   Clear
8:54 AM 34.0 °F - 32.0 °F 92% 30.13 in 7.0 mi Calm Calm - N/A   Clear
9:54 AM 41.0 °F - 37.9 °F 89% 30.13 in 7.0 mi Calm Calm - N/A   Clear
10:54 AM 46.0 °F - 41.0 °F 83% 30.12 in 10.0 mi Calm Calm - N/A   Clear
11:54 AM 50.0 °F - 41.0 °F 71% 30.08 in 10.0 mi East 3.5 mph - N/A   Clear
12:54 PM 55.9 °F - 41.0 °F 57% 30.04 in 10.0 mi Calm Calm - N/A   Clear
1:54 PM 59.0 °F - 39.9 °F 49% 30.01 in 10.0 mi Calm Calm - N/A   Clear
2:54 PM 61.0 °F - 37.9 °F 42% 29.98 in 10.0 mi Calm Calm - N/A   Clear
3:54 PM 62.1 °F - 37.9 °F 41% 29.97 in 10.0 mi Calm Calm - N/A   Clear
4:54 PM 53.1 °F - 37.9 °F 57% 29.98 in 10.0 mi WNW 4.6 mph - N/A   Clear
5:54 PM 46.9 °F - 37.0 °F 68% 29.97 in 10.0 mi Calm Calm - N/A   Clear
6:54 PM 42.1 °F - 36.0 °F 79% 29.97 in 10.0 mi Calm Calm - N/A   Clear
7:54 PM 41.0 °F - 35.1 °F 79% 29.96 in 10.0 mi Calm Calm - N/A   Clear
8:54 PM 37.9 °F - 33.1 °F 83% 29.95 in 10.0 mi Calm Calm - N/A   Clear
9:54 PM 37.9 °F 32.7 °F 36.0 °F 93% 29.94 in 9.0 mi South 6.9 mph - N/A   Partly Cloudy
10:03 PM 39.2 °F 35.0 °F 37.4 °F 93% 29.93 in 2.0 mi South 5.8 mph - N/A   Mostly Cloudy
10:05 PM 41.0 °F 37.1 °F 39.2 °F 93% 29.93 in 1.0 mi South 5.8 mph - N/A   Mist
10:08 PM 41.0 °F 36.4 °F 41.0 °F 100% 29.93 in 0.5 mi South 6.9 mph - N/A Fog Fog
10:54 PM 42.1 °F 38.4 °F 42.1 °F 100% 29.92 in 0.2 mi South 5.8 mph - N/A Fog Fog
11:54 PM 43.0 °F 39.5 °F 43.0 °F 100% 29.91 in 0.2 mi South 5.8 mph - N/A Fog Fog